DW3733 Luzzi (cosenza) IT current weather conditions

sailwx.info

Wind from 332 at 0 knots gusting 2

Air temperature 24.4° C
Dewpoint 18.6° C

Last reported at 2014-Jul-23 07:43 UTC.
Time now 2014-Jul-23 08:12 UTC

Location: N 39°27' E 016°16'.
View on Google Maps.

See reports from other nearby stations

  
Tides and Currents Weather Stations Pressure Air Temp Water Temp Dewpoint Dewpoint Depression Visibility Wind Speed Wind Dir Waves Ship Positions
date/time (UTC)wind fromknots sea level pressurealtimeterstation pressurevisibilityair tempwater tempwave heightnotes
2014-Jul-23 07:43 332 0 gusting 2 24.4
2014-Jul-23 07:33 056 1 gusting 5 23.9
2014-Jul-23 07:23 153 0 gusting 2 23.3
2014-Jul-23 07:03 148 0 gusting 1 22.2
2014-Jul-23 06:53 315 0 gusting 2 21.7
2014-Jul-23 06:43 320 0 gusting 2 21.7
2014-Jul-23 06:33 21.7
2014-Jul-23 06:23 087 1 gusting 5 21.1
2014-Jul-23 06:13 040 1 gusting 5 21.1
2014-Jul-22 21:03 195 0 gusting 2 20.0
2014-Jul-22 20:43 142 0 gusting 5 20.6
2014-Jul-22 20:33 225 0 gusting 2 20.6
2014-Jul-22 20:23 219 1 gusting 2 20.0
2014-Jul-22 20:13 179 1 gusting 2 20.0
2014-Jul-22 20:03 170 0 gusting 2 20.0
2014-Jul-22 19:43 175 0 gusting 2 20.0
2014-Jul-22 19:33 218 0 gusting 5 20.0
2014-Jul-22 19:23 186 1 gusting 4 20.0
2014-Jul-22 19:13 192 0 gusting 4 20.6
2014-Jul-22 19:03 229 1 gusting 5 20.6
2014-Jul-22 18:53 151 2 gusting 5 20.6
2014-Jul-22 18:43 180 0 gusting 4 20.6
2014-Jul-22 18:33 225 0 gusting 4 20.6
2014-Jul-22 18:23 245 1 gusting 5 20.6
2014-Jul-22 18:13 136 2 gusting 7 20.6
2014-Jul-22 18:03 135 2 gusting 6 21.1
2014-Jul-22 17:53 090 0 gusting 2 21.1
2014-Jul-22 17:43 205 0 gusting 5 22.2
2014-Jul-22 17:33 254 22.8
2014-Jul-22 17:23 225 0 gusting 1 23.3
2014-Jul-22 17:13 23.3
2014-Jul-22 16:53 206 23.3
2014-Jul-22 16:43 225 0 gusting 2 23.3
2014-Jul-22 16:33 236 1 gusting 4 23.3
2014-Jul-22 16:23 196 2 gusting 6 23.9
2014-Jul-22 16:13 225 2 gusting 6 23.9
2014-Jul-22 16:03 163 2 gusting 8 24.4
2014-Jul-22 15:53 285 3 gusting 10 24.4
2014-Jul-22 15:43 180 6 gusting 11 24.4
2014-Jul-22 15:33 225 5 gusting 8 25.0
2014-Jul-22 15:13 189 5 gusting 8 25.0
2014-Jul-22 14:53 254 4 gusting 8 25.0
2014-Jul-22 14:43 225 4 gusting 7 25.6
2014-Jul-22 14:33 180 4 gusting 6 25.6
2014-Jul-22 14:23 201 5 gusting 8 25.6
2014-Jul-22 14:13 135 2 gusting 5 25.6
2014-Jul-22 14:03 167 4 gusting 6 24.4
2014-Jul-22 13:53 122 5 gusting 11 23.3
2014-Jul-22 13:33 337 2 gusting 6 21.7
2014-Jul-22 13:23 124 2 gusting 5 21.7
2014-Jul-22 13:13 180 1 gusting 2 21.7
2014-Jul-22 13:03 220 0 gusting 1 21.7
2014-Jul-22 12:53 315 0 gusting 8 21.7
2014-Jul-22 12:43 22.2
2014-Jul-22 12:33 270 22.2
2014-Jul-22 12:23 045 0 gusting 2 21.7
2014-Jul-22 12:13 180 0 gusting 8 22.2
2014-Jul-22 12:03 245 4 gusting 8 23.9
2014-Jul-22 11:53 264 6 gusting 11 25.6
2014-Jul-22 11:43 203 6 gusting 12 26.1
2014-Jul-22 11:33 204 6 gusting 11 27.2
2014-Jul-22 11:23 225 6 gusting 10 27.2
2014-Jul-22 11:13 209 3 gusting 12 26.7
2014-Jul-22 11:03 203 5 gusting 13 26.7
2014-Jul-22 10:53 248 6 gusting 12 26.7
2014-Jul-22 10:43 205 6 gusting 13 26.7
2014-Jul-22 10:33 198 5 gusting 13 26.7
2014-Jul-22 10:23 165 5 gusting 7 26.1
2014-Jul-22 10:13 013 5 gusting 11 26.1
2014-Jul-22 10:03 193 4 gusting 11 25.6
2014-Jul-22 09:53 222 5 gusting 10 25.6
2014-Jul-22 09:43 180 5 gusting 8 25.6
2014-Jul-22 09:23 124 1 gusting 6 24.4
2014-Jul-22 09:13 118 2 gusting 7 23.3
2014-Jul-22 09:03 151 2 gusting 5 22.2
2014-Jul-22 08:53 281 0 gusting 8 23.3
2014-Jul-22 08:43 335 3 gusting 5 25.0
2014-Jul-22 08:33 270 0 gusting 4 25.0
2014-Jul-22 08:23 198 2 gusting 6 25.0
2014-Jul-22 08:03 210 4 gusting 6 25.6
2014-Jul-22 07:53 203 4 gusting 11 26.1
2014-Jul-22 07:43 193 2 gusting 8 26.7
2014-Jul-22 07:33 182 3 gusting 6 26.1
2014-Jul-22 07:13 135 3 gusting 7 25.0
2014-Jul-22 07:03 217 1 gusting 5 24.4
2014-Jul-22 06:53 210 1 gusting 5 23.9
2014-Jul-22 06:43 225 2 gusting 5 23.3
2014-Jul-22 06:33 180 0 gusting 2 22.8
2014-Jul-22 06:23 193 1 gusting 5 22.2
2014-Jul-22 06:13 135 2 gusting 5 21.7
2014-Jul-22 06:03 25.0
2014-Jul-21 21:23 225 2 gusting 5 25.6
2014-Jul-21 21:13 181 2 gusting 8 25.6
2014-Jul-21 21:03 155 1 gusting 8 25.6
2014-Jul-21 20:53 256 1 gusting 8 25.6
2014-Jul-21 20:43 221 3 gusting 6 25.6
2014-Jul-21 20:23 166 0 gusting 4 25.6
2014-Jul-21 20:03 180 1 gusting 6 25.6
2014-Jul-21 19:43 099 1 gusting 8 25.0
2014-Jul-21 19:33 180 2 gusting 6 24.4
2014-Jul-21 19:23 135 2 gusting 6 24.4
2014-Jul-21 19:13 203 1 gusting 5 24.4
2014-Jul-21 19:03 176 4 gusting 8 25.0
2014-Jul-21 18:53 225 3 gusting 6 25.6
2014-Jul-21 18:33 225 0 gusting 4 25.6
2014-Jul-21 18:23 135 0 gusting 5 25.6
2014-Jul-21 18:13 225 2 gusting 5 26.1
2014-Jul-21 17:43 259 1 gusting 2 26.7
2014-Jul-21 17:33 268 2 gusting 5 26.7
2014-Jul-21 17:23 180 2 gusting 5 26.7
2014-Jul-21 17:13 117 2 gusting 5 26.7
2014-Jul-21 17:03 135 0 gusting 1 26.7
2014-Jul-21 16:53 207 27.2
2014-Jul-21 16:23 204 1 gusting 5 27.8
2014-Jul-21 16:13 225 1 gusting 5 27.8
2014-Jul-21 16:03 189 2 gusting 6 27.8
2014-Jul-21 15:53 192 2 gusting 6 27.8
2014-Jul-21 15:43 116 1 gusting 5 27.8
2014-Jul-21 15:33 221 0 gusting 5 27.8
2014-Jul-21 15:23 045 2 gusting 5 27.8
2014-Jul-21 15:13 010 1 gusting 2 28.3
2014-Jul-21 15:03 180 0 gusting 2 28.3
2014-Jul-21 14:53 054 0 gusting 2 28.9
2014-Jul-21 14:43 337 0 gusting 2 28.3
2014-Jul-21 14:03 353 0 gusting 2 28.9
2014-Jul-21 13:33 025 0 gusting 5 28.3
2014-Jul-21 13:23 045 0 gusting 2 28.3
2014-Jul-21 13:13 073 0 gusting 4 27.8
2014-Jul-21 12:53 045 1 gusting 4 27.2
2014-Jul-21 12:43 056 0 gusting 2 27.8
2014-Jul-21 12:33 27.8
2014-Jul-21 12:23 28.3
2014-Jul-21 12:03 135 1 gusting 4 28.3
2014-Jul-21 11:53 090 2 gusting 5 28.9
2014-Jul-21 11:43 332 0 gusting 2 28.9
2014-Jul-21 11:33 013 0 gusting 2 28.9
2014-Jul-21 11:23 045 0 gusting 5 28.9
2014-Jul-21 11:13 045 1 gusting 5 28.9
2014-Jul-21 11:03 090 2 gusting 6 28.9
2014-Jul-21 10:33 301 2 gusting 5 30.0
2014-Jul-21 10:23 351 2 gusting 7 30.6
2014-Jul-21 10:13 31.1
2014-Jul-21 10:03 079 2 gusting 6 31.1
2014-Jul-21 09:53 090 2 gusting 6 30.6
2014-Jul-21 09:33 31.7
2014-Jul-21 09:23 315 2 gusting 6 32.2
2014-Jul-21 09:13 030 2 gusting 11 32.2
2014-Jul-21 08:53 343 0 gusting 5 32.8
2014-Jul-21 08:43 347 1 gusting 6 32.8
2014-Jul-21 08:23 225 2 gusting 5 31.7
2014-Jul-21 08:13 012 0 gusting 2 31.1
2014-Jul-21 08:03 30.6